Regional Weather Roundup
Issued by NWS

Home | Current Version | Previous Version | Text Only | Print | Product List | Glossary On
Versions: 1 2 3 4 5 6 7 8 9 10 11 12 13 14 15 16 17 18 19 20 21 22 23 24 25 26 27
000
ASUS42 KTBW 031116
RWRFL
FLORIDA REGIONAL WEATHER ROUNDUP
NATIONAL WEATHER SERVICE TAMPA BAY RUSKIN FL
700 AM EDT TUE AUG 03 2021

NOTE: "FAIR" INDICATES FEW OR NO CLOUDS BELOW 12,000 FEET WITH NO
SIGNIFICANT WEATHER AND/OR OBSTRUCTIONS TO VISIBILITY.

FLZ001>010-012>015-112-114-115-031200-
PANHANDLE FLORIDA

CITY           SKY/WX    TMP DP  RH WIND       PRES   REMARKS
PENSACOLA      LGT RAIN  75  74  96 N6        29.93R
CRESTVIEW      CLOUDY    74  72  93 CALM      29.95S
DUKE FIELD     CLOUDY    73  71  96 N5        29.93S
VALPARAISO     MOCLDY    73  71  95 N6        29.92R
MARY ESTHER    CLOUDY    73  71  95 N5        29.92R
PANAMA CITY    MOCLDY    74  74 100 NW5       29.91R FOG
TYNDALL AFB    PTCLDY    76  74  93 E3        29.90S
APALACHICOLA   MOCLDY    75  75 100 NE3       29.91R

STATION/POSITION SKY/WX   TEMP    WIND        PRES    WAVE   SWELL
                          AIR SEA DIR/SP/G            HT/PER HT/PER
                          (F)     (DEG/KT/KT) (MB)    (FT/S) (FT/S)
30.1N   87.6W              82 87  350/  6/  8   N/A     1/ 9   2/ 9
29.2N   88.2W              76 85   70/  2/  4 1014.2F   3/ 5   3/ 5
28.8N   86.0W              84 86  270/ 16/ 21 1013.8R   4/ 5   2/ 8
PANAMA CITY BEAC           76 82   10/  6/  6 1013.2
TOWER C                    82     270/ 17/ 18 1013.4R
28.5N   84.5W              80     350/  8/ 12 1013.5R   4/ 5   3/ 5

$$
FLZ011-016>038-118-127-128-134-139-239-031200-
NORTH FLORIDA

CITY           SKY/WX    TMP DP  RH WIND       PRES   REMARKS
MARIANNA       CLOUDY    74  73  97 NE3       29.92R
TALLAHASSEE    MOCLDY    75  74  96 CALM      29.93R
LIVE OAK       CLOUDY    73  73 100 CALM      29.93R
CROSS CITY     DRIZZLE   75  75  98 S7        29.94R
LAKE CITY      CLOUDY    72  72 100 S8        29.94R
GAINESVILLE    LGT RAIN  74  73  97 S8        29.98R
WILLISTON      LGT RAIN  74  73  98 S8        29.98R
PALATKA        CLOUDY    70  68  94 SW9G16    29.96S FOG
MAYPORT NAS    CLOUDY    77  77 100 SW10      29.93R
JACKSONVILLE   CLOUDY    74  73  97 SW8       29.93R
JAX NAS        CLOUDY    74  74 100 SW10      29.94R
JAX CECIL      MOCLDY    75  73  94 SW12      29.94R
FERNANDINA BEA CLOUDY    75 N/A N/A SW12      29.93S
ST AUGUSTINE   CLOUDY    75  74  96 SW8       29.95F
PALM COAST     CLOUDY   N/A N/A N/A SW6       29.96S

STATION/POSITION SKY/WX   TEMP    WIND        PRES    WAVE   SWELL
                          AIR SEA DIR/SP/G            HT/PER HT/PER
                          (F)     (DEG/KT/KT) (MB)    (FT/S) (FT/S)
SHELL POINT      NOT AVBL
KEATON BEACH               81     190/ 11/ 13 1013.3R
CEDAR KEY                  78     190/  8/ 10 1014.2F
FERNANDINA                 81 84  170/  4/  7 1013.5
30.7N   81.3W              80 83                N/A     3/ 4
MAYPORT                    76 83  200/  8/ 12 1014.0
31.4N   80.9W              80 84  230/ 14/ 16 1012.8R   3/ 5   2/ 8
ST AUGUSTINE               75 82  230/  7/ 10 1014.2F

$$
FLZ040-043>046-052-053-057-058-063-144-031200-
INTERIOR CENTRAL FLORIDA

CITY           SKY/WX    TMP DP  RH WIND       PRES   REMARKS
OCALA          LGT RAIN  74  74 100 S10       30.00R
LEESBURG       HVY RAIN  75  72  90 W9        30.00S FOG
SANFORD        LGT RAIN  76  74  93 W8        29.99R
ORLANDO EXEC   CLOUDY    78  74  87 W13       30.00R
ORLANDO INTL   CLOUDY    77  74  90 W8        30.00R
KISSIMMEE      CLOUDY   N/A N/A N/A W7        30.02R
WINTER HAVEN   CLOUDY    76  73  91 CALM      30.01R
LAKELAND       PTCLDY    75  73  94 CALM      30.00R
BARTOW         FAIR      73  72  94 SE3       30.01R
SEBRING        MOCLDY    76  74  92 SW5       30.01R
OKEECHOBEE     MOCLDY   N/A N/A N/A MISG      30.00S

$$
FLZ041-047-054-059-064-141-147-031200-
EAST CENTRAL FLORIDA

CITY           SKY/WX    TMP DP  RH WIND       PRES   REMARKS
ORMOND BEACH   LGT RAIN  75  75 100 SW7       29.97  FOG
DAYTONA BEACH  LGT RAIN  76  73  91 SW7       29.97R
DELAND         LGT RAIN  75  74  95 W9G16     29.99R
NEW SMYRNA BEA LGT RAIN  75  73  94 SW6       29.96
JFK SPACE CTR  MOCLDY    76  74  92 SW7       29.97S
TITUSVILLE     MOCLDY    79  77  94 SW5       29.99
CAPE CANAVERAL PTCLDY    77  74  88 SW8       29.98S
PATRICK AFB    PTCLDY    78  77  99 SW9       29.98R
MELBOURNE      PTCLDY    76  74  93 SW6       29.99R
VERO BEACH     PTCLDY    76  32  20 S3        30.00R
FT PIERCE      PTCLDY    77  76  96 S3        30.00R
STUART         PTCLDY    79  75  89 CALM      30.02R

STATION/POSITION SKY/WX   TEMP    WIND        PRES    WAVE   SWELL
                          AIR SEA DIR/SP/G            HT/PER HT/PER
                          (F)     (DEG/KT/KT) (MB)    (FT/S) (FT/S)
28.5N   80.2W              80 82  210/ 12/ 14 1014.4F   2/ 3
28.9N   78.5W              82     150/ 16/ 19 1015.8R
TRIDENT PIER               78 83  210/  5/  7   N/A
28.4N   80.5W                 80                N/A     2/ 4
27.5N   80.2W                 80                N/A     1/ 3

$$
FLZ050-056-061-142-242-148-248-149-249-151-251-155-255-
160-260-031200-
WEST CENTRAL FLORIDA

CITY           SKY/WX    TMP DP  RH WIND       PRES   REMARKS
CRYSTAL RIVER    N/A     73  73 100 S3        30.00S
INVERNESS      RAIN      72  72 100 SW3       30.01S
BROOKSVILLE    HVY RAIN  73  72  96 W3        30.03S FOG
CLEARWATER AIR HVY RAIN  73  72  94 NW10      30.02R
ST PETE CLEARW HVY RAIN  77  73  87 NW21G26   30.00R FOG
TAMPA INTL     HVY RAIN  77  73  87 N9        30.03R VSB 1/2
TAMPA EXEC     CLOUDY    77  75  94 NW6       30.03R
PLANT CITY     LGT RAIN  77  75  94 NW6       30.04R
MACDILL AFB    CLOUDY    79  72  78 N8        29.98R THUNDER
PETER O KNIGHT CLOUDY    77  73  88 N10G17    30.02R
ST PETERSBURG  CLOUDY    83  76  79 W3        29.98R
SARASOTA       MOCLDY    83  74  74 W22G29    29.97R THUNDER
VENICE         FAIR      84  77  79 SW9       29.99R THUNDER

STATION/POSITION SKY/WX   TEMP    WIND        PRES    WAVE   SWELL
                          AIR SEA DIR/SP/G            HT/PER HT/PER
                          (F)     (DEG/KT/KT) (MB)    (FT/S) (FT/S)
27.3N   84.3W                 84                N/A     3/ 4
CLEARWATER BEACH           78 90  300/ 18/ 21 1015.7
MIDDLE TAMPA BAY           85     310/ 29/ 40   N/A
VENICE                     85 89  240/ 13/ 14 1015.1R

$$
FLZ066-069-070-075>078-162-262-165-265-031200-
SOUTHWEST FLORIDA AND KEYS

CITY           SKY/WX    TMP DP  RH WIND       PRES   REMARKS
PUNTA GORDA    CLEAR     79  77  94 CALM      30.00R
FT MYERS       CLEAR     80  76  87 CALM      29.98R
SOUTHWEST INTL CLEAR     79  74  84 CALM      30.00R
NAPLES         PTCLDY    84  76  76 SW5       29.99R
IMMOKALEE      FAIR      75  73  94 SE5       30.00R
MARATHON       MOCLDY    83  76  79 S7        30.01R
KEY WEST NAS   PTCLDY    86  75  69 S9        30.01R HX  95
KEY WEST INTL  CLEAR     84  74  71 S9        30.01R

STATION/POSITION SKY/WX   TEMP    WIND        PRES    WAVE   SWELL
                          AIR SEA DIR/SP/G            HT/PER HT/PER
                          (F)     (DEG/KT/KT) (MB)    (FT/S) (FT/S)
NAPLES                     91 90              1015.9
26.0N   85.6W              85 87  240/ 10/ 14 1014.4R   2/ 7   2/ 7
DRY TORTUGAS     NOT AVBL
SAND KEY                   83     190/ 10/ 12 1016.5R
SOMBRERO KEY                      180/ 12/ 15 1015.5R
LONG KEY                                      1015.9R

$$
FLZ067-068-071>074-168-172>174-031200-
SOUTHEAST FLORIDA

CITY           SKY/WX    TMP DP  RH WIND       PRES   REMARKS
W PALM BEACH   MOCLDY    80  77  90 SW5       30.01R
BOCA RATON     PTCLDY    82  77  83 SW7       30.01
FT LAUDER-EXEC PTCLDY    78  76  93 S3        30.00R
FT LAUDERDALE  MOCLDY    82  77  83 VRB5      30.00R
POMPANO BEACH  MOCLDY    82  75  79 S3        30.00R
PEMBROKE PINES PTCLDY    80  76  87 SW3       30.02R
OPA LOCKA      PTCLDY    80  75  84 SW5       30.01R
MIAMI          MOCLDY    82  77  84 S5        30.01R
WEST KENDALL   MOCLDY    81  76  84 S3        30.01R
HOMESTEAD      CLOUDY    80  76  90 CALM      30.01R

STATION/POSITION SKY/WX   TEMP    WIND        PRES    WAVE   SWELL
                          AIR SEA DIR/SP/G            HT/PER HT/PER
                          (F)     (DEG/KT/KT) (MB)    (FT/S) (FT/S)
VIRGINIA KEY               85 90  150/  9/ 12 1016.6
LAKE WORTH                 82 86  220/  7/  9 1015.2
FOWEY ROCKS                84 86  170/ 17/ 18 1015.9R
SETTLEMENT POINT           83     170/ 12/ 16 1016.5R

$$




USA.gov is the U.S. government's official web portal to all federal, state and local government web resources and services.